Tracking 19570 objects as of 22-Feb-2019
HD Live streaming from Space Station
objects crossing your sky now

METEOR 2-5 DEB

Track METEOR 2-5 DEB now!
10-day predictions


NORAD ID: 39602
Int'l Code: 1979-095CD
Perigee: 823.6 km
Apogee: 851.7 km
Inclination: 81.2 °
Period: 101.5 minutes
Semi major axis: 7208 km
RCS: Unknown
Launch date: October 31, 1979
Source: Commonwealth of Independent States (former USSR) (CIS)
Launch site: PLESETSK MISSILE AND SPACE COMPLEX (PKMTR)

Note: This is SATELLITE DEBRIS
aabbcc
Your satellite tracking list
Your tracking list is empty




NASA's NSSDC Master Catalog

Two Line Element Set (TLE):
1 39602U 79095CD  19033.49468939  .00001373  00000-0  65772-3 0  9992
2 39602  81.2081 304.9791 0019516 228.6600 131.2897 14.18474131285641
Source of the keplerian elements: AFSPC